星链-1108 (STARLINK-1108 )

导读

STARLINK-1108是美国太空探索技术公司(SpaceX)星链计划中的一颗卫星,于2020年1月7日发射入轨,隶属于美国SpaceX主导的星链星座项目。星链旨在构建全球卫星互联网星座,该卫星承担为全球提供低延迟、高速率宽带互联网接入服务的任务,是星链大规模组网进程中的组成部分。

Basic Information
目录编号:
44944
目录名称:
STARLINK-1108
国际标识:
2020-001AG
轨道中心:
EARTH
卫星名称:
星链-1108
卫星全名:
星链-1108 (STARLINK-1108 )
卫星状态:
已陨落 最后检测时间 2024-10-16
发射日期:
2020-01-07 UTC
国别 :
美国 (US)
星等 :
--
Orbit Information
数据来源 国际轨道数据
星历时间: 2024-10-16T22:22:40+0800
轨道信息已过期606天
半长轴: 6571.077km
偏心率: 0.0010605
轨道倾角: 53.027°
近地点辐角 9.101°
升交点赤经 68.923°
平近点角 57.461°
近地点: 185.973km
远地点: 199.911km
周期: 88.352分钟
每日圈数: 16.298513
Detailed Information
固有亮度:
5
最大亮度:
2.5
卫星平台:
Starlink V1.0
覆盖范围:
全球
运营商:
太空探索技术公司
运营商所在国:
美国
制造商(研发单位):
太空探索技术公司
制造商所在国:
美国
使用方式:
暂无
Satellite Introduction
星链(Starlink)计划是由太空探索技术公司(SpaceX)提出的一个巨型低轨卫星互联网星座项目,计划在2019年至2024年间在太空搭建由约1.2万颗卫星组成的“星链”网络,其中1584颗将部署在地球上空550千米处的近地轨道,并从2020年开始工作。该卫星仍在工作。